Location: Ferchesar
(52.6477°N, 12.4298°E)
Time: 05:03:29
(UTC+02:00)

Vanguard 3 - Pass Details

Date: 06 March 2021
Orbit: 508 x 3262 km, 33.3° (Epoch: 15 April)

Event Time Altitude Azimuth Distance (km) Brightness Sun altitude
Rises 16:36:29 0° 248° (WSW) 7,225 14.2 11.1°
Reaches altitude 10° 16:42:05 10° 241° (WSW) 6,121 14.7 10.3°
Maximum altitude 16:57:46 36° 186° (S) 3,660 10.9 8.1°
Drops below altitude 10° 17:08:52 10° 126° (SE) 4,347 10.5 6.5°
Sets 17:12:04 0° 118° (ESE) 4,990 10.8 6.0°
